Time,TemperatureF,DewpointF,PressureIn,WindDirection,WindDirectionDegrees,WindSpeedMPH,WindSpeedGustMPH,Humidity,HourlyPrecipIn,Conditions,Clouds,dailyrainin,SoftwareType,DateUTC
2013-09-09 00:12:00,70.6,60.0,30.06,NW,323,0.0,3.0,70,0.00,,,0.00,weatherlink.com 1.10,2013-09-09 04:12:00,
2013-09-09 00:27:00,70.3,59.0,30.06,NW,323,0.0,2.0,68,0.00,,,0.00,weatherlink.com 1.10,2013-09-09 04:27:00,
2013-09-09 00:42:00,70.0,58.0,30.07,NW,323,0.0,1.0,66,0.00,,,0.00,weatherlink.com 1.10,2013-09-09 04:42:00,
2013-09-09 00:57:00,69.7,57.0,30.07,NW,323,0.0,2.0,64,0.00,,,0.00,weatherlink.com 1.10,2013-09-09 04:57:00,
2013-09-09 01:12:00,69.3,56.0,30.08,NW,323,0.0,1.0,62,0.00,,,0.00,weatherlink.com 1.10,2013-09-09 05:12:00,
2013-09-09 01:27:00,69.0,55.0,30.08,NW,323,0.0,1.0,62,0.00,,,0.00,weatherlink.com 1.10,2013-09-09 05:27:00,
2013-09-09 01:42:00,68.7,55.0,30.09,NNW,329,0.0,2.0,63,0.00,,,0.00,weatherlink.com 1.10,2013-09-09 05:42:00,
2013-09-09 01:57:00,68.5,55.0,30.08,NNW,329,0.0,2.0,62,0.00,,,0.00,weatherlink.com 1.10,2013-09-09 05:57:00,
2013-09-09 02:12:00,68.2,53.0,30.08,West,274,0.0,4.0,59,0.00,,,0.00,weatherlink.com 1.10,2013-09-09 06:12:00,
2013-09-09 02:27:00,67.6,53.0,30.09,NNE,30,1.0,3.0,59,0.00,,,0.00,weatherlink.com 1.10,2013-09-09 06:27:00,
2013-09-09 02:42:00,67.0,52.0,30.09,NNE,30,0.0,0.0,60,0.00,,,0.00,weatherlink.com 1.10,2013-09-09 06:42:00,
2013-09-09 02:57:00,66.3,53.0,30.10,NNE,30,0.0,0.0,62,0.00,,,0.00,weatherlink.com 1.10,2013-09-09 06:57:00,
2013-09-09 03:12:00,65.8,51.0,30.09,NNE,30,0.0,2.0,60,0.00,,,0.00,weatherlink.com 1.10,2013-09-09 07:12:00,
2013-09-09 03:27:00,65.4,51.0,30.10,North,355,0.0,3.0,59,0.00,,,0.00,weatherlink.com 1.10,2013-09-09 07:27:00,
2013-09-09 03:42:00,65.0,51.0,30.10,NNW,348,1.0,2.0,60,0.00,,,0.00,weatherlink.com 1.10,2013-09-09 07:42:00,
2013-09-09 03:57:00,64.5,51.0,30.10,NNW,348,0.0,1.0,61,0.00,,,0.00,weatherlink.com 1.10,2013-09-09 07:57:00,
2013-09-09 04:12:00,64.2,51.0,30.11,North,360,0.0,2.0,62,0.00,,,0.00,weatherlink.com 1.10,2013-09-09 08:12:00,
2013-09-09 04:27:00,63.9,50.0,30.11,NNE,33,0.0,2.0,62,0.00,,,0.00,weatherlink.com 1.10,2013-09-09 08:27:00,
2013-09-09 04:42:00,63.5,51.0,30.11,NNE,17,0.0,1.0,63,0.00,,,0.00,weatherlink.com 1.10,2013-09-09 08:42:00,
2013-09-09 04:57:00,63.4,50.0,30.12,North,10,0.0,1.0,63,0.00,,,0.00,weatherlink.com 1.10,2013-09-09 08:57:00,
2013-09-09 05:12:00,63.4,50.0,30.13,North,9,0.0,2.0,63,0.00,,,0.00,weatherlink.com 1.10,2013-09-09 09:12:00,
2013-09-09 05:27:00,63.2,50.0,30.13,North,9,0.0,1.0,63,0.00,,,0.00,weatherlink.com 1.10,2013-09-09 09:27:00,
2013-09-09 05:42:00,63.0,51.0,30.14,North,9,0.0,3.0,64,0.00,,,0.00,weatherlink.com 1.10,2013-09-09 09:42:00,
2013-09-09 05:57:00,62.8,50.0,30.14,North,5,0.0,4.0,64,0.00,,,0.00,weatherlink.com 1.10,2013-09-09 09:57:00,
2013-09-09 06:12:00,62.6,50.0,30.15,North,5,0.0,2.0,64,0.00,,,0.00,weatherlink.com 1.10,2013-09-09 10:12:00,
2013-09-09 06:27:00,62.5,50.0,30.15,North,5,0.0,1.0,65,0.00,,,0.00,weatherlink.com 1.10,2013-09-09 10:27:00,
2013-09-09 06:42:00,62.1,51.0,30.16,North,5,0.0,1.0,66,0.00,,,0.00,weatherlink.com 1.10,2013-09-09 10:42:00,
2013-09-09 06:57:00,62.0,51.0,30.16,North,5,0.0,2.0,67,0.00,,,0.00,weatherlink.com 1.10,2013-09-09 10:57:00,
2013-09-09 07:12:00,62.1,51.0,30.17,North,5,0.0,3.0,66,0.00,,,0.00,weatherlink.com 1.10,2013-09-09 11:12:00,
2013-09-09 07:28:00,62.1,51.0,30.18,NNE,24,1.0,4.0,66,0.00,,,0.00,weatherlink.com 1.10,2013-09-09 11:28:00,
2013-09-09 07:43:00,62.1,51.0,30.19,North,11,0.0,4.0,66,0.00,,,0.00,weatherlink.com 1.10,2013-09-09 11:43:00,
2013-09-09 07:58:00,62.1,51.0,30.19,North,11,1.0,3.0,66,0.00,,,0.00,weatherlink.com 1.10,2013-09-09 11:58:00,
2013-09-09 08:13:00,62.0,51.0,30.19,North,11,1.0,2.0,67,0.00,,,0.00,weatherlink.com 1.10,2013-09-09 12:13:00,
2013-09-09 08:28:00,62.0,51.0,30.19,North,11,2.0,2.0,67,0.00,,,0.00,weatherlink.com 1.10,2013-09-09 12:28:00,
2013-09-09 08:43:00,62.2,51.0,30.19,North,9,0.0,3.0,68,0.00,,,0.00,weatherlink.com 1.10,2013-09-09 12:43:00,
2013-09-09 08:58:00,63.0,51.0,30.19,North,11,0.0,4.0,66,0.00,,,0.00,weatherlink.com 1.10,2013-09-09 12:58:00,
2013-09-09 09:13:00,63.4,52.0,30.19,NNE,20,0.0,2.0,66,0.00,,,0.00,weatherlink.com 1.10,2013-09-09 13:13:00,
2013-09-09 09:28:00,64.3,53.0,30.19,North,9,1.0,3.0,66,0.00,,,0.00,weatherlink.com 1.10,2013-09-09 13:28:00,
2013-09-09 09:43:00,65.2,53.0,30.19,North,10,0.0,3.0,66,0.00,,,0.00,weatherlink.com 1.10,2013-09-09 13:43:00,
2013-09-09 09:58:00,66.2,54.0,30.19,NE,34,0.0,3.0,65,0.00,,,0.00,weatherlink.com 1.10,2013-09-09 13:58:00,
2013-09-09 10:13:00,67.1,55.0,30.20,NNE,32,0.0,2.0,65,0.00,,,0.00,weatherlink.com 1.10,2013-09-09 14:13:00,
2013-09-09 10:28:00,67.5,56.0,30.20,NNE,32,1.0,4.0,66,0.00,,,0.00,weatherlink.com 1.10,2013-09-09 14:28:00,
2013-09-09 10:43:00,68.2,55.0,30.20,NNE,16,1.0,2.0,64,0.00,,,0.00,weatherlink.com 1.10,2013-09-09 14:43:00,
2013-09-09 10:58:00,68.6,56.0,30.20,NNE,12,0.0,4.0,65,0.00,,,0.00,weatherlink.com 1.10,2013-09-09 14:58:00,
2013-09-09 11:13:00,69.2,56.0,30.20,North,11,1.0,3.0,63,0.00,,,0.00,weatherlink.com 1.10,2013-09-09 15:13:00,
2013-09-09 11:43:00,70.0,57.0,30.20,SW,216,0.0,4.0,64,0.00,,,0.00,weatherlink.com 1.10,2013-09-09 15:43:00,
2013-09-09 11:58:00,70.4,58.0,30.20,SW,229,1.0,5.0,65,0.00,,,0.00,weatherlink.com 1.10,2013-09-09 15:58:00,
2013-09-09 12:13:00,70.8,59.0,30.19,SSW,208,0.0,6.0,66,0.00,,,0.00,weatherlink.com 1.10,2013-09-09 16:13:00,
2013-09-09 12:28:00,71.3,58.0,30.20,SSW,205,0.0,3.0,64,0.00,,,0.00,weatherlink.com 1.10,2013-09-09 16:28:00,
2013-09-09 12:43:00,72.6,58.0,30.19,NNW,345,0.0,4.0,61,0.00,,,0.00,weatherlink.com 1.10,2013-09-09 16:43:00,
2013-09-09 12:58:00,72.9,59.0,30.19,SW,223,0.0,5.0,62,0.00,,,0.00,weatherlink.com 1.10,2013-09-09 16:58:00,
2013-09-09 13:13:00,72.8,59.0,30.18,SW,215,1.0,7.0,63,0.00,,,0.00,weatherlink.com 1.10,2013-09-09 17:13:00,
2013-09-09 13:28:00,73.4,60.0,30.18,SSW,202,3.0,6.0,64,0.00,,,0.00,weatherlink.com 1.10,2013-09-09 17:28:00,
2013-09-09 13:43:00,73.5,60.0,30.18,SSW,197,2.0,5.0,63,0.00,,,0.00,weatherlink.com 1.10,2013-09-09 17:43:00,
2013-09-09 13:58:00,73.7,61.0,30.18,SSW,198,3.0,5.0,64,0.00,,,0.00,weatherlink.com 1.10,2013-09-09 17:58:00,
2013-09-09 14:13:00,74.0,61.0,30.17,SW,214,5.0,5.0,64,0.00,,,0.00,weatherlink.com 1.10,2013-09-09 18:13:00,
2013-09-09 14:28:00,74.8,61.0,30.17,SSW,211,2.0,6.0,62,0.00,,,0.00,weatherlink.com 1.10,2013-09-09 18:28:00,
2013-09-09 14:43:00,75.9,62.0,30.16,WSW,249,3.0,6.0,63,0.00,,,0.00,weatherlink.com 1.10,2013-09-09 18:43:00,
2013-09-09 14:58:00,76.4,62.0,30.16,South,189,2.0,7.0,62,0.00,,,0.00,weatherlink.com 1.10,2013-09-09 18:58:00,
2013-09-09 15:13:00,76.4,63.0,30.15,South,169,1.0,5.0,63,0.00,,,0.00,weatherlink.com 1.10,2013-09-09 19:13:00,
2013-09-09 15:28:00,77.0,63.0,30.15,West,270,0.0,3.0,63,0.00,,,0.00,weatherlink.com 1.10,2013-09-09 19:28:00,
2013-09-09 15:43:00,77.6,63.0,30.15,SSW,207,3.0,6.0,62,0.00,,,0.00,weatherlink.com 1.10,2013-09-09 19:43:00,
2013-09-09 15:58:00,77.1,63.0,30.14,SW,219,0.0,5.0,63,0.00,,,0.00,weatherlink.com 1.10,2013-09-09 19:58:00,
2013-09-09 16:13:00,77.4,64.0,30.14,SSW,204,1.0,7.0,63,0.00,,,0.00,weatherlink.com 1.10,2013-09-09 20:13:00,
2013-09-09 16:28:00,77.5,64.0,30.14,SSW,198,4.0,7.0,64,0.00,,,0.00,weatherlink.com 1.10,2013-09-09 20:28:00,
2013-09-09 16:43:00,77.3,64.0,30.14,SSW,192,1.0,8.0,64,0.00,,,0.00,weatherlink.com 1.10,2013-09-09 20:43:00,
2013-09-09 16:58:00,77.4,65.0,30.14,South,175,0.0,5.0,66,0.00,,,0.00,weatherlink.com 1.10,2013-09-09 20:58:00,
2013-09-09 17:13:00,76.6,64.0,30.14,SW,224,2.0,9.0,66,0.00,,,0.00,weatherlink.com 1.10,2013-09-09 21:13:00,
2013-09-09 17:28:00,76.7,65.0,30.13,SSW,202,0.0,6.0,68,0.00,,,0.00,weatherlink.com 1.10,2013-09-09 21:28:00,
2013-09-09 17:43:00,76.6,66.0,30.13,SSE,163,0.0,5.0,69,0.00,,,0.00,weatherlink.com 1.10,2013-09-09 21:43:00,
2013-09-09 17:58:00,76.1,65.0,30.13,SSW,213,2.0,5.0,69,0.00,,,0.00,weatherlink.com 1.10,2013-09-09 21:58:00,
2013-09-09 18:13:00,75.8,66.0,30.13,South,183,0.0,7.0,71,0.00,,,0.00,weatherlink.com 1.10,2013-09-09 22:13:00,
2013-09-09 18:28:00,75.4,66.0,30.13,SSE,162,0.0,7.0,73,0.00,,,0.00,weatherlink.com 1.10,2013-09-09 22:28:00,
2013-09-09 18:43:00,75.2,66.0,30.13,SW,219,1.0,2.0,73,0.00,,,0.00,weatherlink.com 1.10,2013-09-09 22:43:00,
2013-09-09 18:58:00,75.1,66.0,30.13,South,183,4.0,7.0,73,0.00,,,0.00,weatherlink.com 1.10,2013-09-09 22:58:00,
2013-09-09 19:13:00,74.8,66.0,30.13,South,178,2.0,5.0,75,0.00,,,0.00,weatherlink.com 1.10,2013-09-09 23:13:00,
2013-09-09 19:28:00,74.2,67.0,30.13,SSE,165,0.0,5.0,77,0.00,,,0.00,weatherlink.com 1.10,2013-09-09 23:28:00,
2013-09-09 19:43:00,73.8,67.0,30.13,SW,217,1.0,4.0,78,0.00,,,0.00,weatherlink.com 1.10,2013-09-09 23:43:00,
2013-09-09 19:58:00,73.6,67.0,30.14,SE,138,1.0,5.0,79,0.00,,,0.00,weatherlink.com 1.10,2013-09-09 23:58:00,
2013-09-09 20:13:00,73.3,67.0,30.14,South,180,0.0,3.0,80,0.00,,,0.00,weatherlink.com 1.10,2013-09-10 00:13:00,
2013-09-09 20:28:00,73.2,67.0,30.14,South,183,0.0,3.0,81,0.00,,,0.00,weatherlink.com 1.10,2013-09-10 00:28:00,
2013-09-09 20:43:00,73.3,67.0,30.15,South,187,0.0,4.0,81,0.00,,,0.00,weatherlink.com 1.10,2013-09-10 00:43:00,
2013-09-09 20:58:00,73.3,67.0,30.15,South,190,0.0,4.0,81,0.00,,,0.00,weatherlink.com 1.10,2013-09-10 00:58:00,
2013-09-09 21:13:00,73.3,68.0,30.15,SW,229,0.0,4.0,82,0.00,,,0.00,weatherlink.com 1.10,2013-09-10 01:13:00,
2013-09-09 21:28:00,73.2,67.0,30.16,SSE,159,2.0,3.0,82,0.00,,,0.00,weatherlink.com 1.10,2013-09-10 01:28:00,
2013-09-09 21:43:00,73.0,68.0,30.15,South,180,0.0,4.0,83,0.00,,,0.00,weatherlink.com 1.10,2013-09-10 01:43:00,
2013-09-09 21:58:00,72.9,68.0,30.15,South,186,0.0,3.0,83,0.00,,,0.00,weatherlink.com 1.10,2013-09-10 01:58:00,
2013-09-09 22:13:00,72.8,68.0,30.16,SSW,196,0.0,4.0,84,0.00,,,0.00,weatherlink.com 1.10,2013-09-10 02:13:00,
2013-09-09 22:29:00,72.7,68.0,30.15,SSW,198,1.0,5.0,84,0.00,,,0.00,weatherlink.com 1.10,2013-09-10 02:29:00,
2013-09-09 22:44:00,72.5,68.0,30.15,South,180,2.0,8.0,85,0.00,,,0.00,weatherlink.com 1.10,2013-09-10 02:44:00,
2013-09-09 22:59:00,72.3,68.0,30.15,SSW,200,0.0,3.0,86,0.00,,,0.00,weatherlink.com 1.10,2013-09-10 02:59:00,
2013-09-09 23:14:00,72.2,68.0,30.15,ESE,119,1.0,4.0,87,0.00,,,0.00,weatherlink.com 1.10,2013-09-10 03:14:00,
2013-09-09 23:29:00,72.1,68.0,30.15,SSW,196,0.0,2.0,87,0.00,,,0.00,weatherlink.com 1.10,2013-09-10 03:29:00,
2013-09-09 23:44:00,72.1,68.0,30.16,South,184,0.0,2.0,88,0.00,,,0.00,weatherlink.com 1.10,2013-09-10 03:44:00,
2013-09-09 23:59:00,72.1,68.0,30.16,South,181,2.0,3.0,88,0.00,,,0.00,weatherlink.com 1.10,2013-09-10 03:59:00,